Weather History for KMNM - January, 2012

Change the Weather History Date:

Friday, January 27, 2012

  Actual Average Record
Temperature  
Mean Temperature 34 °F -  
Max Temperature 39 °F 25 °F 48 °F (2006)
Min Temperature 28 °F 7 °F -21 °F (1950)
Degree Days  
Heating Degree Days 32    
Moisture  
Dew Point 21 °F    
Average Humidity 62    
Maximum Humidity 87    
Minimum Humidity 41    
Precipitation  
Precipitation 0.00 in - - ()
Sea Level Pressure  
Sea Level Pressure 29.74 in    
Wind  
Wind Speed 6 mph (West)    
Max Wind Speed 16 mph    
Max Gust Speed 21 mph    
Visibility 10 miles    
Events      
Averages and records for this station are not official NWS values.
T = Trace of Precipitation, MM = Missing Value Source: NWS Daily Summary

Daily Weather History Graph

Daily Weather History Graph

Search for Another Location

Airport or City:

Trip Planner

Search our weather history database for the weather conditions in past years. The results will help you decide how hot, cold, wet, or windy it might be!

Date:

Astronomy

Jan. 27, 2012 Rise Set
Actual Time 7:16 AM CST 4:50 PM CST
Civil Twilight 6:44 AM CST 5:22 PM CST
Nautical Twilight 6:09 AM CST 5:57 PM CST
Astronomical Twilight 5:34 AM CST 6:32 PM CST
Moon 8:55 AM CST (1/27) 9:58 PM CST (1/27)
Length of Visible Light 10h 37m
Length of Day
9h 33m
Waxing Crescent, 20% of the Moon is Illuminated
Jan 27
Waxing Crescent
Jan 30
First Quarter
Feb 7
Full
Feb 14
Last Quarter
Feb 21
New

Hourly Weather History & Observations

Time (CST) Temp. Windchill Dew Point Humidity Pressure Visibility Wind Dir Wind Speed Gust Speed Precip Events Conditions
12:35 AM 32.0 °F 27.5 °F 28.4 °F 87% 29.61 in 5.0 mi WNW 4.6 mph - N/A   Overcast
12:55 AM 32.0 °F 28.7 °F 28.4 °F 87% 29.61 in 5.0 mi WNW 3.5 mph - N/A   Overcast
1:15 AM 32.0 °F 28.7 °F 28.4 °F 87% 29.61 in 5.0 mi WNW 3.5 mph - N/A   Overcast
1:35 AM 33.8 °F 28.6 °F 28.4 °F 81% 29.61 in 7.0 mi WNW 5.8 mph - N/A   Overcast
1:55 AM 33.8 °F 29.6 °F 28.4 °F 81% 29.62 in 8.0 mi WNW 4.6 mph - N/A   Overcast
2:15 AM 33.8 °F 28.6 °F 26.6 °F 75% 29.63 in 9.0 mi NW 5.8 mph - N/A   Overcast
2:35 AM 33.8 °F 29.6 °F 28.4 °F 81% 29.64 in 10.0 mi NW 4.6 mph - N/A   Overcast
2:55 AM 33.8 °F 29.6 °F 26.6 °F 75% 29.64 in 10.0 mi WNW 4.6 mph - N/A   Overcast
3:15 AM 33.8 °F 29.6 °F 28.4 °F 81% 29.65 in 10.0 mi NW 4.6 mph - N/A   Overcast
3:35 AM 33.8 °F 29.6 °F 24.8 °F 70% 29.66 in 10.0 mi NNW 4.6 mph - N/A   Overcast
3:55 AM 33.8 °F 27.0 °F 24.8 °F 70% 29.67 in 10.0 mi NNW 8.1 mph - N/A   Overcast
4:15 AM 33.8 °F 29.6 °F 24.8 °F 70% 29.68 in 10.0 mi NNW 4.6 mph - N/A   Overcast
4:35 AM 33.8 °F 27.7 °F 23.0 °F 65% 29.69 in 10.0 mi NW 6.9 mph - N/A   Overcast
4:55 AM 33.8 °F 28.6 °F 21.2 °F 60% 29.70 in 10.0 mi NNW 5.8 mph - N/A   Overcast
5:15 AM 33.8 °F 29.6 °F 21.2 °F 60% 29.70 in 10.0 mi NW 4.6 mph - N/A   Mostly Cloudy
5:35 AM 32.0 °F 27.5 °F 19.4 °F 60% 29.71 in 10.0 mi NW 4.6 mph - N/A   Partly Cloudy
5:55 AM 30.2 °F 24.3 °F 21.2 °F 69% 29.72 in 10.0 mi NW 5.8 mph - N/A   Clear
6:15 AM 30.2 °F 25.4 °F 21.2 °F 69% 29.73 in 10.0 mi NW 4.6 mph - N/A   Clear
6:35 AM 30.2 °F 24.3 °F 21.2 °F 69% 29.74 in 10.0 mi West 5.8 mph - N/A   Clear
6:55 AM 28.4 °F 23.3 °F 21.2 °F 74% 29.74 in 10.0 mi West 4.6 mph - N/A   Clear
7:15 AM 28.4 °F 22.2 °F 21.2 °F 74% 29.75 in 10.0 mi WNW 5.8 mph - N/A   Clear
7:35 AM 28.4 °F 23.3 °F 21.2 °F 74% 29.75 in 10.0 mi West 4.6 mph - N/A   Clear
7:55 AM 28.4 °F 23.3 °F 21.2 °F 74% 29.76 in 10.0 mi WNW 4.6 mph - N/A   Clear
8:15 AM 28.4 °F 22.2 °F 19.4 °F 69% 29.76 in 10.0 mi WNW 5.8 mph - N/A   Clear
8:35 AM 28.4 °F 21.2 °F 19.4 °F 69% 29.76 in 10.0 mi NW 6.9 mph - N/A   Clear
8:55 AM 28.4 °F 20.4 °F 19.4 °F 69% 29.76 in 10.0 mi NW 8.1 mph - N/A   Clear
9:15 AM 30.2 °F 23.4 °F 19.4 °F 64% 29.77 in 10.0 mi NW 6.9 mph - N/A   Clear
9:35 AM 30.2 °F 23.4 °F 19.4 °F 64% 29.78 in 10.0 mi WNW 6.9 mph - N/A   Clear
9:55 AM 32.0 °F 25.6 °F 19.4 °F 60% 29.79 in 10.0 mi WNW 6.9 mph - N/A   Clear
10:15 AM 32.0 °F 26.4 °F 19.4 °F 60% 29.79 in 10.0 mi WNW 5.8 mph - N/A   Clear
10:35 AM 33.8 °F 27.0 °F 19.4 °F 56% 29.80 in 10.0 mi West 8.1 mph - N/A   Clear
10:55 AM 33.8 °F 27.0 °F 17.6 °F 52% 29.80 in 10.0 mi West 8.1 mph - N/A   Clear
11:15 AM 33.8 °F 28.6 °F 19.4 °F 56% 29.80 in 10.0 mi WNW 5.8 mph - N/A   Clear
11:35 AM 35.6 °F 30.7 °F 17.6 °F 48% 29.79 in 10.0 mi WSW 5.8 mph - N/A   Clear
11:55 AM 35.6 °F 29.2 °F 19.4 °F 52% 29.79 in 10.0 mi West 8.1 mph - N/A   Clear
12:15 PM 37.4 °F 32.1 °F 17.6 °F 45% 29.79 in 10.0 mi West 6.9 mph - N/A   Clear
12:35 PM 37.4 °F 32.1 °F 17.6 °F 45% 29.79 in 10.0 mi West 6.9 mph - N/A   Clear
1:15 PM 37.4 °F 31.4 °F 17.6 °F 45% 29.79 in 10.0 mi WSW 8.1 mph - N/A   Scattered Clouds
1:35 PM 37.4 °F 32.8 °F 17.6 °F 45% 29.78 in 10.0 mi West 5.8 mph - N/A   Mostly Cloudy
1:55 PM 37.4 °F 32.1 °F 17.6 °F 45% 29.78 in 10.0 mi WSW 6.9 mph - N/A   Scattered Clouds
2:15 PM 39.2 °F 35.9 °F 17.6 °F 42% 29.79 in 10.0 mi WSW 4.6 mph - N/A   Partly Cloudy
2:35 PM 39.2 °F 32.0 °F 17.6 °F 42% 29.78 in 10.0 mi SW 11.5 mph - N/A   Scattered Clouds
2:55 PM 39.2 °F 33.6 °F 17.6 °F 42% 29.78 in 10.0 mi SW 8.1 mph - N/A   Partly Cloudy
3:15 PM 37.4 °F 30.8 °F 17.6 °F 45% 29.78 in 10.0 mi SW 9.2 mph - N/A   Partly Cloudy
3:35 PM 37.4 °F 32.1 °F 15.8 °F 41% 29.79 in 10.0 mi SW 6.9 mph - N/A   Scattered Clouds
3:55 PM 35.6 °F 28.6 °F 19.4 °F 52% 29.79 in 10.0 mi SW 9.2 mph - N/A   Scattered Clouds
4:15 PM 35.6 °F 29.2 °F 19.4 °F 52% 29.79 in 10.0 mi SW 8.1 mph - N/A   Mostly Cloudy
4:35 PM 35.6 °F 30.7 °F 17.6 °F 48% 29.79 in 10.0 mi WSW 5.8 mph - N/A   Overcast
4:55 PM 33.8 °F 27.7 °F 19.4 °F 56% 29.79 in 10.0 mi SW 6.9 mph - N/A   Overcast
5:15 PM 33.8 °F 27.0 °F 19.4 °F 56% 29.78 in 10.0 mi SSW 8.1 mph - N/A   Overcast
5:35 PM 33.8 °F 27.0 °F 17.6 °F 52% 29.78 in 10.0 mi SW 8.1 mph - N/A   Overcast
5:55 PM 33.8 °F 27.7 °F 21.2 °F 60% 29.78 in 10.0 mi SSW 6.9 mph - N/A   Overcast
6:35 PM 33.8 °F 26.4 °F 23.0 °F 65% 29.79 in 10.0 mi SW 9.2 mph - N/A   Mostly Cloudy
6:55 PM 33.8 °F 24.3 °F 21.2 °F 60% 29.78 in 10.0 mi SW 13.8 mph 19.6 mph N/A   Overcast
7:15 PM 33.8 °F 26.4 °F 21.2 °F 60% 29.78 in 10.0 mi SW 9.2 mph - N/A   Overcast
7:35 PM 33.8 °F 25.3 °F 21.2 °F 60% 29.78 in 10.0 mi SW 11.5 mph - N/A   Mostly Cloudy
7:55 PM 33.8 °F 23.5 °F 23.0 °F 65% 29.78 in 9.0 mi SW 16.1 mph 20.7 mph N/A   Mostly Cloudy
8:15 PM 33.8 °F 25.3 °F 24.8 °F 70% 29.77 in 9.0 mi SW 11.5 mph 18.4 mph N/A   Mostly Cloudy
8:35 PM 33.8 °F 25.8 °F 24.8 °F 70% 29.76 in 10.0 mi SW 10.4 mph - N/A   Overcast
8:55 PM 33.8 °F 24.8 °F 24.8 °F 70% 29.75 in 10.0 mi SW 12.7 mph 16.1 mph N/A   Overcast
9:15 PM 35.6 °F 27.5 °F 24.8 °F 65% 29.75 in 10.0 mi SW 11.5 mph 18.4 mph N/A   Overcast
9:35 PM 35.6 °F 27.1 °F 24.8 °F 65% 29.74 in 10.0 mi SW 12.7 mph 17.3 mph N/A   Mostly Cloudy
9:55 PM 33.8 °F 26.4 °F 26.6 °F 75% 29.74 in 4.0 mi WSW 9.2 mph 23.0 mph N/A   Overcast
10:15 PM 32.0 °F 24.8 °F 28.4 °F 87% 29.73 in 5.0 mi WSW 8.1 mph - N/A   Overcast
10:35 PM 32.0 °F 24.2 °F 30.2 °F 93% 29.72 in 1.5 mi SW 9.2 mph - N/A   Overcast
10:55 PM 32.0 °F 23.6 °F 30.2 °F 93% 29.72 in 2.5 mi SW 10.4 mph - N/A   Overcast
11:15 PM 32.0 °F 23.6 °F 30.2 °F 93% 29.71 in 2.0 mi WSW 10.4 mph - N/A   Overcast
11:35 PM 32.0 °F 24.2 °F 30.2 °F 93% 29.70 in 1.8 mi WSW 9.2 mph - N/A   Overcast
11:55 PM 32.0 °F 23.0 °F 30.2 °F 93% 29.70 in 1.8 mi WSW 11.5 mph - N/A   Overcast